This is the latest recevied weather packets stored in our database for station/object KD9CCP. If no packets are shown the sender has not sent any weather packets the latest 10 day(s).
| Time | Temp. | Humidity | Pressure | Rain* | Wind** | Luminosity | Snow |
|---|---|---|---|---|---|---|---|
| 1777918982 | 15.56° C | 48% | 996 hPa | 0 mm | - | 139 W/m² | - |
| 1777918679 | 16.11° C | 45% | 996.2 hPa | 0 mm | - | 128 W/m² | - |
| 1777918376 | 15.56° C | 43% | 995.7 hPa | 0 mm | - | 148 W/m² | - |
| 1777918075 | 15.56° C | 44% | 995.8 hPa | 0 mm | - | 272 W/m² | - |
| 1777917774 | 16.11° C | 42% | 996 hPa | 0 mm | - | 253 W/m² | - |
| 1777917471 | 16.11° C | 45% | 996.1 hPa | 0 mm | - | 109 W/m² | - |
| 1777917168 | 16.11° C | 46% | 996.2 hPa | 0 mm | - | 124 W/m² | - |
| 1777916865 | 16.67° C | 47% | 996 hPa | 0 mm | - | 447 W/m² | - |
| 1777916563 | 16.67° C | 46% | 995.7 hPa | 0 mm | - | 552 W/m² | - |
| 1777916259 | 16.67° C | 45% | 995.6 hPa | 0 mm | - | 670 W/m² | - |
| 1777915956 | 17.22° C | 47% | 995.6 hPa | 0 mm | - | 660 W/m² | - |
| 1777915653 | 16.67° C | 51% | 995.3 hPa | 0 mm | - | 560 W/m² | - |
| 1777915350 | 16.11° C | 52% | 995.3 hPa | 0 mm | - | 650 W/m² | - |
| 1777915046 | 15.56° C | 51% | 995.5 hPa | 0 mm | - | 521 W/m² | - |
| 1777914743 | 15.56° C | 54% | 995.5 hPa | 0 mm | - | 138 W/m² | - |
| 1777914440 | 15.56° C | 58% | 995.6 hPa | 0 mm | - | 70 W/m² | - |
| 1777914137 | 15.56° C | 59% | 995.4 hPa | 0 mm | - | 66 W/m² | - |
| 1777913833 | 15° C | 60% | 995.4 hPa | 0 mm | - | 77 W/m² | - |
| 1777913529 | 15.56° C | 60% | 995.1 hPa | 0 mm | - | 77 W/m² | - |
| 1777913227 | 15° C | 58% | 995.2 hPa | 0 mm | - | 88 W/m² | - |
| 1777912923 | 15.56° C | 58% | 995.1 hPa | 0 mm | - | 97 W/m² | - |
| 1777912619 | 15.56° C | 57% | 995.3 hPa | 0 mm | - | 107 W/m² | - |
| 1777912315 | 15.56° C | 56% | 995.1 hPa | 0 mm | - | 79 W/m² | - |
| 1777912011 | 16.11° C | 56% | 995.2 hPa | 0 mm | - | 75 W/m² | - |
| 1777911707 | 15.56° C | 56% | 994.8 hPa | 0 mm | - | 142 W/m² | - |
* Rain latest hour (hover to see other rain measurements)
** Current wind speed in m/s (hover to see current wind gust speed)